This is the latest recevied weather packets stored in our database for station/object W4NDF-13. If no packets are shown the sender has not sent any weather packets the latest 10 day(s).
| Time | Temp. | Humidity | Pressure | Rain* | Wind** | Luminosity | Snow |
|---|---|---|---|---|---|---|---|
| 1778104619 | 29.44° C | 78% | 1012.1 hPa | 0 mm | - | 346 W/m² | - |
| 1778104314 | 29.44° C | 78% | 1012.4 hPa | 0 mm | - | 389 W/m² | - |
| 1778104011 | 28.89° C | 78% | 1012.1 hPa | 0 mm | - | 402 W/m² | - |
| 1778103709 | 29.44° C | 77% | 1012.2 hPa | 0 mm | - | 316 W/m² | - |
| 1778103407 | 29.44° C | 77% | 1012.2 hPa | 0 mm | - | 264 W/m² | - |
| 1778103104 | 29.44° C | 78% | 1012.2 hPa | 0 mm | - | 346 W/m² | - |
| 1778102802 | 29.44° C | 77% | 1012.2 hPa | 0 mm | - | 488 W/m² | - |
| 1778102496 | 29.44° C | 77% | 1012.2 hPa | 0 mm | - | 454 W/m² | - |
| 1778102192 | 29.44° C | 77% | 1012.2 hPa | 0 mm | - | 514 W/m² | - |
| 1778101889 | 28.89° C | 77% | 1012.3 hPa | 0 mm | - | 298 W/m² | - |
| 1778101586 | 28.89° C | 77% | 1012.5 hPa | 0 mm | - | 526 W/m² | - |
| 1778101282 | 28.89° C | 76% | 1012.5 hPa | 0 mm | - | 530 W/m² | - |
| 1778100980 | 29.44° C | 76% | 1012.5 hPa | 0 mm | - | 542 W/m² | - |
| 1778100674 | 29.44° C | 77% | 1012.4 hPa | 0 mm | - | 549 W/m² | - |
| 1778100372 | 29.44° C | 78% | 1012.8 hPa | 0 mm | - | 543 W/m² | - |
| 1778100069 | 29.44° C | 79% | 1013 hPa | 0 mm | - | 439 W/m² | - |
| 1778099768 | 29.44° C | 79% | 1013 hPa | 0 mm | - | 654 W/m² | - |
| 1778099464 | 30° C | 77% | 1013.1 hPa | 0 mm | - | 370 W/m² | - |
| 1778099162 | 29.44° C | 77% | 1013.2 hPa | 0 mm | - | 348 W/m² | - |
| 1778098858 | 30° C | 76% | 1013.3 hPa | 0 mm | - | 688 W/m² | - |
| 1778098555 | 30° C | 76% | 1013.4 hPa | 0 mm | - | 412 W/m² | - |
| 1778098252 | 29.44° C | 77% | 1013.6 hPa | 0 mm | - | 708 W/m² | - |
| 1778097948 | 30° C | 76% | 1013.4 hPa | 0 mm | - | 747 W/m² | - |
| 1778097645 | 30° C | 76% | 1013.5 hPa | 0 mm | - | 700 W/m² | - |
| 1778097341 | 29.44° C | 77% | 1013.8 hPa | 0 mm | - | 628 W/m² | - |
* Rain latest hour (hover to see other rain measurements)
** Current wind speed in m/s (hover to see current wind gust speed)